Home   Weather   Cambridge   Past weeks

Flag for Canada Past Weather in Cambridge, Ontario, Canada — Yesterday and Last 2 Weeks

Now
36 °F

Fog.


Feels Like: 27 °F
Forecast: 28 / 34 °F
Wind: 14 mph from West

Location: Waterloo Well

Current Time: Dec 7, 2016 at 3:58:12 am

Latest Report: Dec 7, 2016 at 3:00 am


Visibility: 5 mi

Pressure: 29.80 "Hg

Humidity: 93%

Dew Point: 34 °F

Location of CambridgeLocation

Past Weather in Cambridge — Graph

°F

Cambridge Temperature Yesterday

Maximum temperature yesterday: 37 °F (at 12:00 pm)
Minimum temperature yesterday: 25 °F (at 7:00 am)
Average temperature yesterday: 32 °F

High & Low Weather Summary for the Past Weeks

 TemperatureHumidityPressure
High55 °F (Nov 29, 2:00 pm)100% (Nov 22, 10:02 pm)30.38 "Hg (Nov 22, 10:02 pm)
Low19 °F (Nov 23, 6:00 am)60% (Nov 22, 1:00 pm)29.46 "Hg (Nov 30, 9:00 pm)
Average36 °F88%30.01 "Hg
* Reported Nov 22 2:00 am — Dec 7 2:00 am, Cambridge, Weather by CustomWeather, © 2016

Note: Actual official high and low records may vary slightly from our data, if they occured in-between our weather recording intervals... More about our weather records

Advertising

Cambridge Weather History for the Previous 24 Hours

Scroll right to see more
 ConditionsComfort  
Time TempWeatherWind HumidityBarometerVisibility
2:00 am
Wed, Dec 7
34 °FFog.12 mph100%29.78 "Hg5 mi
1:01 am34 °FLight rain. Fog.5 mph93%29.75 "Hg3 mi
12:00 am34 °FLight rain. Fog.5 mph93%29.76 "Hg1 mi
11:00 pm
Tue, Dec 6
34 °FLight rain. Fog.3 mph93%29.75 "Hg2 mi
10:00 pm34 °FLight rain. Fog.6 mph93%29.76 "Hg3 mi
9:00 pm34 °FLight rain. Fog.7 mph93%29.76 "Hg6 mi
7:00 pm34 °FLight snow. Low clouds.7 mph93%29.79 "Hg3 mi
6:04 pm34 °FLight rain. Mostly cloudy.13 mph93%29.78 "Hg9 mi
5:57 pm36 °FLight rain. Mostly cloudy.14 mph87%29.79 "Hg9 mi
5:00 pm37 °FMostly cloudy.15 mph75%29.79 "Hg9 mi
4:00 pm37 °FOvercast.12 mph75%29.80 "Hg9 mi
2:00 pm37 °FOvercast.23 mph81%29.81 "Hg9 mi
12:00 pm37 °FPartly sunny.18 mph87%29.88 "Hg9 mi
11:00 am36 °FSunny.18 mph93%29.93 "Hg8 mi
10:51 am36 °FFog.17 mph93%29.93 "Hg6 mi
10:00 am34 °FFog.12 mph93%29.98 "Hg2 mi
9:45 am32 °FIce fog.14 mph100%30.00 "Hg2 mi
9:00 am30 °FIce fog.9 mph100%30.00 "Hg3 mi
8:00 am28 °FIce fog.6 mph93%30.02 "Hg4 mi
7:00 am25 °FIce fog.3 mph100%30.05 "Hg2 mi
6:00 am27 °FIce fog.2 mph93%30.06 "Hg1 mi
5:04 am27 °FLight snow. Clear.2 mph93%30.06 "Hg1 mi
4:02 am27 °FIce fog.3 mph100%30.07 "Hg1 mi
3:00 am28 °FIce fog.2 mph93%30.10 "Hg1 mi
Weather by CustomWeather, © 2016

See weather overviewHow to use our weather pages